Terminal Aerodrome Forecast
Issued by NWS Melbourne, FL

Home | Current Version | Previous Version | Text Only | Print | Product List | Glossary On
Versions: 1 2 3 4 5 6 7 8 9 10 11 12 13
272
FTUS42 KMLB 252331
TAFMLB
TAF
KMLB 252331Z 2600/2624 15011KT P6SM BKN050
     FM260300 VRB03KT P6SM SCT250
     FM261630 09008KT P6SM SCT035 SCT250=

USA.gov is the U.S. government's official web portal to all federal, state and local government web resources and services.